WA7BMK Weather Reports


time (UTC)temp
F
wind
direction
speed
knots
gust
knots
rain 1hr
in
rain 24hr
in
rain mn
in
humidity
%
barometer
mb
20260505121536 54 286 0.9 5.2 0.00 0.00 0.00 84 1014.8
20260505120041 54 0 0.0 5.2 0.00 0.00 0.00 84 1014.5
20260505114546 54 219 1.7 6.1 0.00 0.00 0.00 85 1014.6
20260505113034 54 206 0.0 3.5 0.00 0.00 0.00 85 1014.6
20260505111533 53 145 0.0 3.5 0.00 0.00 0.00 85 1014.6
20260505101530 53 0 0.0 3.5 0.00 0.00 0.00 86 1014.2
20260505100034 53 201 0.0 3.5 0.00 0.00 0.00 85 1014.1
20260505094534 53 168 0.9 6.1 0.00 0.00 0.00 85 1014.0
20260505093042 53 170 1.7 4.3 0.00 0.00 0.00 85 1013.9
20260505091543 53 186 0.9 6.1 0.00 0.00 0.00 86 1013.9
20260505090048 53 0 0.0 2.6 0.00 0.00 0.00 86 1013.8
20260505084535 53 152 0.9 3.5 0.00 0.00 0.00 87 1013.8
20260505083034 53 0 0.0 2.6 0.00 0.00 0.00 88 1013.8
20260505081538 52 0 0.0 0.0 0.00 0.00 0.00 88 1013.8
20260505080047 52 0 0.0 0.0 0.00 0.00 0.00 86 1013.7
20260505074535 52 0 0.0 0.9 0.00 0.00 0.00 87 1013.6
20260505073048 52 0 0.0 3.5 0.00 0.00 0.00 87 1013.3
20260505071533 52 236 0.0 3.5 0.00 0.00 0.00 86 1013.2
20260505070049 53 0 0.9 2.6 0.00 0.00 0.00 86 1013.2
20260505064537 53 0 0.0 0.0 0.00 0.00 0.00 85 1013.0
20260505063036 53 0 0.0 1.7 0.00 0.00 0.00 84 1012.9
20260505061533 54 0 0.0 2.6 0.00 0.00 0.00 84 1012.6
20260505060035 54 259 0.0 3.5 0.00 0.00 0.00 83 1012.5
20260505054530 54 0 0.0 1.7 0.00 0.00 0.00 83 1012.2
20260505053037 55 225 0.9 3.5 0.00 0.00 0.00 82 1012.2
20260505051536 55 288 0.0 3.5 0.00 0.00 0.00 81 1012.1
20260505050111 56 0 0.9 4.3 0.00 0.00 0.00 80 1012.0
20260505041548 57 0 0.9 5.2 0.00 0.00 0.00 77 1011.6
20260505040052 58 360 1.7 7.8 0.00 0.00 0.00 75 1011.5
20260505034537 60 226 0.9 5.2 0.00 0.00 0.00 72 1011.4
20260505033042 61 0 0.9 4.3 0.00 0.00 0.00 71 1011.1
20260505031544 62 360 1.7 5.2 0.00 0.00 0.00 69 1011.0
20260505030040 63 0 0.0 4.3 0.00 0.00 0.00 67 1010.8
20260505024537 65 291 0.9 7.0 0.00 0.00 0.00 65 1010.4
20260505023043 66 355 0.0 6.1 0.00 0.00 0.00 64 1010.4
20260505021540 68 303 1.7 6.1 0.00 0.00 0.00 62 1010.3
20260505020036 70 294 0.9 4.3 0.00 0.00 0.00 59 1010.3
20260505014553 70 310 1.7 8.7 0.00 0.00 0.00 58 1010.3
20260505013031 73 241 0.9 5.2 0.00 0.00 0.00 55 1010.2
20260505011537 73 0 0.9 7.0 0.00 0.00 0.00 53 1010.4
20260505010036 74 350 2.6 10.4 0.00 0.00 0.00 54 1010.3
20260505004539 74 305 1.7 6.1 0.00 0.00 0.00 55 1010.3
20260505003035 75 342 1.7 7.0 0.00 0.00 0.00 53 1010.2
20260505001537 77 254 0.9 7.8 0.00 0.00 0.00 52 1010.1
20260505000040 75 290 1.7 7.0 0.00 0.00 0.00 55 1010.1
20260504234546 75 333 1.7 7.0 0.00 0.00 0.00 54 1010.2
20260504233035 75 264 1.7 7.8 0.00 0.00 0.00 55 1010.3
20260504231536 75 330 1.7 9.6 0.00 0.00 0.00 54 1010.4
20260504230031 76 250 0.9 6.1 0.00 0.00 0.00 54 1010.6
20260504224536 76 329 2.6 8.7 0.00 0.00 0.00 55 1010.6
20260504223042 76 299 0.9 8.7 0.00 0.00 0.00 54 1010.6
20260504221537 76 273 1.7 6.1 0.00 0.00 0.00 54 1010.8
20260504220036 76 340 1.7 5.2 0.00 0.00 0.00 54 1010.8
20260504214536 76 251 2.6 7.8 0.00 0.00 0.00 56 1010.9
20260504213054 76 273 0.9 7.8 0.00 0.00 0.00 55 1010.9
20260504211538 76 270 1.7 6.1 0.00 0.00 0.00 54 1011.0
20260504210038 75 304 1.7 6.1 0.00 0.00 0.00 54 1011.0
20260504204534 74 280 0.9 8.7 0.00 0.00 0.00 55 1011.2
20260504203039 74 270 0.9 5.2 0.00 0.00 0.00 56 1011.3
20260504201537 74 271 1.7 7.8 0.00 0.00 0.00 56 1011.3
20260504200036 74 244 0.0 5.2 0.00 0.00 0.00 55 1011.4
20260504194542 74 344 1.7 5.2 0.00 0.00 0.00 53 1011.3
20260504193043 73 211 0.9 7.8 0.00 0.00 0.00 52 1011.5
20260504191534 72 344 1.7 6.1 0.00 0.00 0.00 53 1011.6
20260504190041 72 205 1.7 4.3 0.00 0.00 0.00 52 1011.8
20260504184536 71 278 0.9 5.2 0.00 0.00 0.00 57 1011.9
20260504183035 71 326 1.7 5.2 0.00 0.00 0.00 56 1012.0
20260504181535 70 282 0.9 5.2 0.00 0.00 0.00 57 1011.9
20260504180035 69 329 0.9 7.0 0.00 0.00 0.00 61 1011.8
20260504174536 68 0 1.7 2.6 0.00 0.00 0.00 61 1011.9
20260504173045 68 259 0.0 3.5 0.00 0.00 0.00 61 1011.9
20260504171535 67 263 1.7 6.1 0.00 0.00 0.00 62 1011.8